CW8164 Weather Reports


Display with metric or nautical units.
time (UTC)temp
F
wind
direction
speed
MPH
gust
MPH
rain 1hr
in
rain 24hr
in
rain mn
in
humidity
%
barometer
mb
20260904232403 59 345 0.0 0.0 0.01 0.05 0.05 81 1013.9
20260904231903 59 314 0.0 0.0 0.01 0.05 0.05 81 1014.0
20260904231402 59 358 0.0 0.0 0.01 0.05 0.05 83 1014.1
20260904230903 59 0 0.0 0.0 0.01 0.05 0.05 81 1014.1
20260904225402 60 0 0.0 0.0 0.01 0.05 0.05 76 1014.1
20260904224903 60 357 0.0 2.0 0.01 0.05 0.05 75 1014.2
20260904224403 60 352 0.0 5.0 0.01 0.05 0.05 75 1014.2
20260904223902 59 342 0.0 5.0 0.00 0.04 0.04 76 1014.2
20260904222903 60 153 1.0 7.0 0.00 0.04 0.04 78 1013.9
20260904222402 60 345 1.0 7.0 0.00 0.04 0.04 76 1013.8
20260904221903 61 249 3.0 8.0 0.00 0.04 0.04 75 1013.7
20260904221403 63 212 2.0 16.0 0.00 0.04 0.04 73 1013.7
20260904220903 65 282 5.0 16.0 0.00 0.04 0.04 67 1013.5
20260904220402 67 228 1.0 7.0 0.00 0.04 0.04 62 1013.1
20260904215903 68 250 0.0 2.0 0.00 0.04 0.04 59 1013.1
20260904215403 67 202 0.0 2.0 0.00 0.04 0.04 61 1013.0
20260904214902 67 302 0.0 2.0 0.00 0.04 0.04 61 1013.0
20260904214402 67 293 0.0 2.0 0.00 0.04 0.04 61 1012.9
20260904213402 67 202 1.0 5.0 0.00 0.04 0.04 59 1012.6
20260904212903 67 150 2.0 6.0 0.00 0.04 0.04 56 1012.7
20260904212404 68 35 2.0 6.0 0.00 0.04 0.04 58 1012.6
20260904211902 68 26 2.0 6.0 0.00 0.04 0.04 58 1012.6
20260904211403 68 111 1.0 6.0 0.00 0.04 0.04 59 1012.6
20260904210903 67 23 3.0 6.0 0.00 0.04 0.04 61 1012.6
20260904205903 67 10 2.0 6.0 0.00 0.04 0.04 62 1012.6
20260904205403 67 340 2.0 6.0 0.00 0.04 0.04 62 1012.5
20260904204902 67 25 1.0 6.0 0.00 0.04 0.04 61 1012.5
20260904204402 67 219 2.0 5.0 0.00 0.04 0.04 65 1012.4
20260904203903 67 207 0.0 3.0 0.00 0.04 0.04 64 1012.5
20260904203403 66 307 0.0 6.0 0.00 0.04 0.04 66 1012.5
20260904202902 66 43 1.0 6.0 0.00 0.04 0.04 64 1012.5
20260904202403 66 33 1.0 6.0 0.00 0.04 0.04 63 1012.5
20260904201902 67 23 2.0 7.0 0.00 0.04 0.04 65 1012.6
20260904201402 67 19 3.0 7.0 0.00 0.04 0.04 65 1012.6
20260904200402 67 231 1.0 5.0 0.00 0.04 0.04 63 1012.7
20260904195903 66 238 0.0 5.0 0.00 0.06 0.04 65 1012.7
20260904195402 66 206 2.0 5.0 0.00 0.18 0.04 66 1012.7
20260904194903 66 191 1.0 3.0 0.00 0.18 0.04 69 1012.7
20260904194402 66 317 0.0 3.0 0.00 0.18 0.04 70 1012.8
20260904193902 66 230 1.0 3.0 0.00 0.18 0.04 68 1012.9
20260904193402 66 202 1.0 3.0 0.00 0.18 0.04 70 1012.9
20260904192903 66 187 1.0 3.0 0.00 0.18 0.04 70 1012.9
20260904192402 65 136 0.0 3.0 0.00 0.18 0.04 72 1013.0
20260904191902 65 69 1.0 3.0 0.00 0.18 0.04 65 1013.0
20260904191402 66 278 1.0 3.0 0.00 0.18 0.04 68 1013.0
20260904190903 66 264 1.0 3.0 0.00 0.18 0.04 67 1013.0
20260904190402 66 192 1.0 3.0 0.00 0.18 0.04 71 1013.0
20260904184902 65 122 2.0 3.0 0.00 0.18 0.04 66 1013.0
20260904184402 65 251 0.0 2.0 0.00 0.18 0.04 71 1013.0
20260904183902 64 66 0.0 2.0 0.00 0.18 0.04 70 1013.0
20260904183403 64 63 0.0 2.0 0.00 0.18 0.04 72 1013.0
20260904182902 64 170 1.0 2.0 0.00 0.18 0.04 70 1013.1
20260904182403 63 263 0.0 2.0 0.00 0.18 0.04 75 1013.0
20260904181902 63 282 0.0 2.0 0.00 0.18 0.04 75 1013.0
20260904181403 63 350 0.0 2.0 0.00 0.18 0.04 77 1013.0
20260904180902 62 283 0.0 2.0 0.00 0.18 0.04 76 1012.9
20260904175902 62 316 0.0 2.0 0.00 0.18 0.04 81 1012.9
20260904174902 61 9 0.0 1.0 0.00 0.19 0.04 82 1013.0
20260904174403 61 236 0.0 2.0 0.00 0.19 0.04 84 1012.9
20260904173903 60 218 0.0 2.0 0.00 0.19 0.04 84 1012.9
20260904173402 60 187 0.0 3.0 0.00 0.19 0.04 86 1012.8
20260904172902 60 292 1.0 3.0 0.00 0.19 0.04 86 1012.8
20260904172403 60 237 0.0 3.0 0.00 0.19 0.04 87 1012.8
20260904171902 60 6 0.0 3.0 0.00 0.19 0.04 88 1012.7
20260904171402 60 288 1.0 3.0 0.00 0.19 0.04 89 1012.7
20260904170403 58 84 1.0 2.0 0.00 0.19 0.04 89 1012.7
20260904165902 58 259 0.0 2.0 0.00 0.19 0.04 89 1012.8
20260904165403 58 342 0.0 2.0 0.00 0.19 0.04 90 1012.7
20260904164403 58 271 1.0 2.0 0.00 0.19 0.04 89 1012.7
20260904163403 56 21 1.0 2.0 0.00 0.19 0.04 91 1012.7
20260904162402 55 40 0.0 3.0 0.00 0.19 0.04 92 1012.7
20260904161902 55 85 0.0 3.0 0.00 0.19 0.04 93 1012.8
20260904161402 55 71 0.0 0.0 0.00 0.19 0.04 94 1012.7
20260904160903 54 222 0.0 2.0 0.00 0.19 0.04 95 1012.7
20260904160402 54 290 0.0 2.0 0.00 0.19 0.04 95 1012.7
20260904155902 54 258 0.0 2.0 0.00 0.19 0.04 95 1012.7
20260904155402 54 186 0.0 0.0 0.00 0.19 0.04 95 1012.6
20260904154903 53 155 0.0 0.0 0.00 0.19 0.04 95 1012.5
20260904154402 53 134 0.0 0.0 0.00 0.19 0.04 95 1012.5
20260904153902 53 118 0.0 0.0 0.00 0.19 0.04 95 1012.6
20260904153402 53 76 0.0 0.0 0.00 0.19 0.04 95 1012.5
20260904152903 53 84 0.0 0.0 0.00 0.19 0.04 95 1012.5
20260904152403 53 84 0.0 0.0 0.00 0.19 0.04 95 1012.4
20260904151902 53 67 0.0 0.0 0.00 0.20 0.04 95 1012.3
20260904151402 52 73 0.0 0.0 0.00 0.20 0.04 95 1012.3
20260904150903 52 143 0.0 0.0 0.00 0.20 0.04 95 1012.3
20260904150402 52 190 0.0 0.0 0.00 0.20 0.04 95 1012.4
20260904145902 52 192 0.0 0.0 0.00 0.20 0.04 95 1012.3
20260904145402 52 191 0.0 0.0 0.01 0.20 0.04 95 1012.2
20260904144902 52 188 0.0 0.0 0.01 0.20 0.04 95 1012.2
20260904144403 52 192 0.0 0.0 0.01 0.20 0.04 95 1012.1
20260904143403 52 81 0.0 0.0 0.01 0.20 0.04 95 1012.1
20260904142902 52 79 0.0 2.0 0.01 0.20 0.04 95 1012.1
20260904141902 52 75 0.0 5.0 0.01 0.20 0.04 95 1012.0
20260904141403 52 38 1.0 5.0 0.01 0.20 0.04 95 1011.9
20260904140402 52 33 0.0 1.0 0.01 0.20 0.04 95 1012.0
20260904135902 52 359 0.0 0.0 0.01 0.20 0.04 95 1012.0
20260904135402 52 209 0.0 2.0 0.01 0.19 0.03 95 1012.0
20260904134903 52 209 0.0 2.0 0.01 0.19 0.03 95 1011.8
20260904133902 51 285 0.0 0.0 0.02 0.19 0.03 95 1011.8
20260904133403 51 182 0.0 0.0 0.02 0.19 0.03 95 1011.6
20260904132403 51 95 0.0 0.0 0.03 0.19 0.03 95 1011.4
20260904131903 51 95 0.0 0.0 0.03 0.19 0.03 95 1011.3
20260904131403 51 95 0.0 0.0 0.03 0.19 0.03 95 1011.2
20260904130902 51 95 0.0 0.0 0.03 0.19 0.03 95 1011.2
20260904130402 51 95 0.0 0.0 0.03 0.19 0.03 95 1011.2
20260904125903 51 61 0.0 2.0 0.03 0.19 0.03 95 1011.1
20260904125414 51 51 0.0 2.0 0.02 0.18 0.02 95 1011.1
20260904124904 51 32 0.0 2.0 0.02 0.18 0.02 95 1011.1
20260904124403 51 33 1.0 2.0 0.02 0.18 0.02 95 1011.2
20260904123903 51 67 0.0 0.0 0.01 0.17 0.01 95 1011.2
20260904123403 51 67 0.0 2.0 0.01 0.17 0.01 95 1011.2
20260904122903 51 67 0.0 2.0 0.01 0.17 0.01 95 1011.2
20260904122402 51 67 0.0 1.0 0.00 0.16 0.00 95 1011.2
20260904121902 51 59 0.0 0.0 0.00 0.16 0.00 95 1011.1
20260904121403 51 59 0.0 0.0 0.00 0.16 0.00 95 1011.2
20260904120402 51 59 0.0 0.0 0.00 0.16 0.00 95 1011.0
20260904115902 51 59 0.0 0.0 0.00 0.16 0.00 95 1011.0
20260904115402 51 59 0.0 0.0 0.00 0.17 0.00 95 1011.0
20260904114903 51 59 0.0 0.0 0.00 0.17 0.00 95 1010.9
20260904114402 51 59 0.0 0.0 0.00 0.17 0.00 95 1010.9
20260904113902 51 59 0.0 0.0 0.00 0.17 0.00 95 1010.8
20260904113403 51 59 0.0 0.0 0.00 0.17 0.00 95 1010.8
20260904112402 51 59 0.0 0.0 0.00 0.17 0.00 95 1010.7
20260904111903 51 59 0.0 0.0 0.00 0.17 0.00 95 1010.7
20260904111402 51 59 0.0 0.0 0.00 0.17 0.00 95 1010.7
20260904110402 50 59 0.0 0.0 0.00 0.17 0.00 95 1010.6
20260904105902 50 59 0.0 0.0 0.00 0.17 0.00 95 1010.6
20260904105403 50 59 0.0 0.0 0.00 0.17 0.00 95 1010.6
20260904104902 50 59 0.0 0.0 0.00 0.17 0.00 95 1010.5
20260904104402 50 59 0.0 0.0 0.00 0.17 0.00 94 1010.5
20260904103902 50 59 0.0 0.0 0.00 0.17 0.00 95 1010.5
20260904103402 50 59 0.0 0.0 0.00 0.17 0.00 95 1010.5
20260904102902 50 93 0.0 0.0 0.00 0.17 0.00 95 1010.5
20260904102402 50 93 0.0 0.0 0.00 0.17 0.00 95 1010.6
20260904101903 50 93 0.0 0.0 0.00 0.17 0.00 95 1010.5
20260904101403 50 93 0.0 0.0 0.00 0.17 0.00 95 1010.5
20260904100903 50 93 0.0 0.0 0.00 0.17 0.00 95 1010.5
20260904100402 50 93 0.0 0.0 0.00 0.17 0.00 95 1010.5
20260904095902 50 70 0.0 0.0 0.00 0.17 0.00 95 1010.5
20260904095402 50 70 0.0 0.0 0.00 0.17 0.00 95 1010.4
20260904094902 50 94 0.0 0.0 0.00 0.17 0.00 94 1010.4
20260904094403 50 94 0.0 0.0 0.00 0.17 0.00 94 1010.4
20260904093902 50 94 0.0 0.0 0.00 0.17 0.00 94 1010.3
20260904093402 50 84 0.0 0.0 0.00 0.17 0.00 94 1010.3
20260904092902 50 84 0.0 0.0 0.00 0.17 0.00 94 1010.3
20260904092402 50 84 0.0 0.0 0.00 0.17 0.00 94 1010.2
20260904091902 50 84 0.0 0.0 0.00 0.17 0.00 93 1010.2
20260904091403 50 84 0.0 0.0 0.00 0.17 0.00 93 1010.2
20260904090402 50 84 0.0 0.0 0.00 0.17 0.00 93 1010.2
20260904085902 50 84 0.0 0.0 0.00 0.17 0.00 93 1010.3
20260904085403 51 84 0.0 0.0 0.00 0.17 0.00 92 1010.2
20260904084403 51 84 0.0 0.0 0.00 0.18 0.00 93 1010.2
20260904083903 51 84 0.0 0.0 0.00 0.18 0.00 93 1010.1
20260904083402 52 84 0.0 0.0 0.00 0.18 0.00 93 1010.1
20260904082402 52 79 0.0 0.0 0.00 0.18 0.00 93 1010.0
20260904081903 52 84 0.0 0.0 0.00 0.18 0.00 93 1010.0
20260904081403 52 84 0.0 0.0 0.00 0.18 0.00 93 1010.0
20260904080903 52 84 0.0 0.0 0.00 0.18 0.00 93 1010.0
20260904080403 53 84 0.0 0.0 0.00 0.18 0.00 93 1010.0
20260904075903 53 84 0.0 0.0 0.00 0.18 0.00 93 1010.0
20260904075402 53 84 0.0 0.0 0.00 0.18 0.00 94 1010.1
20260904074903 53 84 0.0 0.0 0.00 0.18 0.00 94 1010.1
20260904074403 53 83 0.0 0.0 0.00 0.18 0.00 94 1010.1
20260904073902 53 83 0.0 0.0 0.00 0.18 0.00 94 1010.1
20260904073403 53 83 0.0 0.0 0.00 0.18 0.00 94 1010.1
20260904072903 53 57 0.0 0.0 0.00 0.18 0.00 94 1010.1
20260904072403 53 36 0.0 0.0 0.00 0.18 0.00 94 1010.2
20260904071903 53 36 0.0 0.0 0.00 0.18 0.00 94 1010.2
20260904071403 53 28 0.0 0.0 0.00 0.18 0.00 94 1010.2
20260904070902 53 41 0.0 0.0 0.00 0.18 0.00 94 1010.2
20260904070402 53 50 0.0 0.0 0.00 0.18 0.00 94 1010.2
20260904065902 53 48 0.0 0.0 0.00 0.18 0.18 94 1010.2
20260904064903 53 34 0.0 1.0 0.00 0.18 0.18 94 1010.2
20260904064403 53 31 0.0 1.0 0.00 0.18 0.18 94 1010.2
20260904063902 52 61 0.0 0.0 0.00 0.18 0.18 94 1010.2
20260904063403 52 61 0.0 0.0 0.00 0.18 0.18 94 1010.3
20260904062903 52 61 0.0 0.0 0.00 0.18 0.18 94 1010.3
20260904062404 52 61 0.0 0.0 0.00 0.18 0.18 94 1010.2
20260904061903 52 61 0.0 0.0 0.00 0.18 0.18 94 1010.2
20260904061403 52 65 0.0 2.0 0.00 0.19 0.18 93 1010.2
20260904060902 52 69 0.0 2.0 0.00 0.19 0.18 94 1010.2
20260904060403 52 75 1.0 2.0 0.00 0.19 0.18 93 1010.3
20260904055403 52 57 0.0 0.0 0.00 0.19 0.18 93 1010.2
20260904053403 53 92 0.0 0.0 0.00 0.19 0.18 92 1010.3
20260904052903 53 92 0.0 0.0 0.00 0.19 0.18 92 1010.3
20260904052403 53 92 0.0 0.0 0.00 0.19 0.18 92 1010.3
20260904051903 53 95 0.0 0.0 0.00 0.19 0.18 92 1010.3
20260904051402 53 127 0.0 1.0 0.00 0.19 0.18 92 1010.3
20260904050902 53 156 0.0 1.0 0.00 0.19 0.18 92 1010.3
20260904050402 53 89 0.0 0.0 0.00 0.19 0.18 92 1010.3
20260904045903 53 71 0.0 0.0 0.00 0.19 0.18 92 1010.2
20260904045403 53 24 0.0 0.0 0.00 0.19 0.18 92 1010.2
20260904044903 53 24 0.0 2.0 0.00 0.19 0.18 92 1010.2
20260904044403 54 44 0.0 2.0 0.00 0.19 0.18 92 1010.2
20260904043903 54 98 0.0 0.0 0.00 0.19 0.18 92 1010.2
20260904043403 54 153 0.0 0.0 0.00 0.19 0.18 92 1010.2
20260904041903 54 119 0.0 0.0 0.00 0.19 0.18 91 1010.2
20260904040903 54 119 0.0 0.0 0.00 0.20 0.18 91 1010.2
20260904040403 55 119 0.0 0.0 0.00 0.20 0.18 91 1010.1
20260904035903 55 119 0.0 0.0 0.00 0.20 0.18 91 1010.1
20260904035403 55 119 0.0 0.0 0.00 0.20 0.18 91 1010.1
20260904034902 55 115 0.0 0.0 0.00 0.20 0.18 91 1010.0
20260904034402 55 115 0.0 0.0 0.00 0.20 0.18 90 1010.0
20260904033403 55 125 0.0 0.0 0.00 0.20 0.18 90 1009.8
20260904032903 55 125 0.0 0.0 0.00 0.20 0.18 90 1009.8
20260904032402 55 125 0.0 0.0 0.00 0.20 0.18 90 1009.8
20260904031902 55 125 0.0 0.0 0.00 0.20 0.18 90 1009.6
20260904031402 56 125 0.0 0.0 0.00 0.20 0.18 89 1009.7
20260904030902 56 125 0.0 0.0 0.00 0.20 0.18 89 1009.7
20260904030403 56 125 0.0 0.0 0.00 0.20 0.18 88 1009.7
20260904025903 56 126 0.0 0.0 0.00 0.20 0.18 88 1009.6
20260904025403 56 126 0.0 0.0 0.00 0.20 0.18 87 1009.6
20260904024902 57 123 0.0 0.0 0.00 0.21 0.18 86 1009.6
20260904024403 57 123 0.0 0.0 0.00 0.21 0.18 86 1009.5
20260904023903 57 123 0.0 1.0 0.00 0.21 0.18 85 1009.5
20260904022902 57 134 0.0 2.0 0.00 0.21 0.18 83 1009.5
20260904021903 57 173 0.0 5.0 0.00 0.21 0.18 82 1009.6
20260904020903 58 150 0.0 3.0 0.00 0.21 0.18 83 1009.6
20260904020403 58 164 0.0 0.0 0.00 0.21 0.18 83 1009.6
20260904015903 58 109 0.0 2.0 0.00 0.21 0.18 84 1009.6
20260904015403 58 91 0.0 2.0 0.00 0.21 0.18 83 1009.6
20260904014903 58 133 0.0 0.0 0.00 0.22 0.18 83 1009.6
20260904014402 58 120 0.0 0.0 0.00 0.22 0.18 85 1009.6
20260904013403 58 131 0.0 0.0 0.00 0.22 0.18 86 1009.7
20260904012903 58 124 0.0 0.0 0.00 0.22 0.18 87 1009.7
20260904012402 58 119 0.0 0.0 0.00 0.22 0.18 86 1009.7
20260904011902 58 145 0.0 1.0 0.00 0.22 0.18 86 1009.6
20260904011403 58 145 0.0 1.0 0.00 0.22 0.18 85 1009.7
20260904010903 58 111 0.0 2.0 0.00 0.22 0.18 86 1009.7
20260904010403 58 129 0.0 2.0 0.00 0.23 0.18 85 1009.7
20260904005903 58 86 1.0 2.0 0.00 0.23 0.18 84 1009.8
20260904005402 58 128 0.0 1.0 0.00 0.23 0.18 86 1009.9
20260904004403 58 143 0.0 0.0 0.00 0.23 0.18 86 1009.9
20260904003903 58 100 0.0 3.0 0.00 0.23 0.18 85 1009.8
20260904003403 58 114 1.0 5.0 0.00 0.24 0.18 84 1009.8
20260904002403 58 92 0.0 5.0 0.00 0.24 0.18 84 1009.9
20260904001903 58 133 0.0 5.0 0.00 0.24 0.18 85 1009.9
20260904001402 58 84 2.0 5.0 0.00 0.24 0.18 85 1010.0
20260904000403 58 86 0.0 3.0 0.00 0.25 0.18 85 1010.0
20260903235902 59 93 1.0 3.0 0.00 0.25 0.18 84 1009.9
20260903234903 59 214 0.0 3.0 0.00 0.25 0.18 81 1010.0
20260903234403 60 192 1.0 7.0 0.00 0.25 0.18 79 1010.0
20260903233903 61 214 1.0 7.0 0.00 0.26 0.18 77 1009.9
20260903233403 62 226 1.0 3.0 0.00 0.26 0.18 76 1009.9
20260903232903 62 217 1.0 3.0 0.00 0.26 0.18 72 1009.8